AAL1776 KIAD-KMCO

Flight info

Callsign AAL1776
Flight time 1h 48m
Altitude 37000
Route JCOBY4 SCOOB PAACK Q97 ELMSZ IGARY Q85 LPERD GTOUT1
Aircraft MD11/H-SDE1E2E3FGHIJ2J3J4J5M1RWXY/LB1D1

Departure

Time 2026-04-22 19:14
Airport Washington Dulles International Airport (KIAD)

Arrival

Time 2026-04-22 21:03
Airport Orlando International Airport (KMCO)
Time Latitude Longitude Altitude Speed Heading
2026-04-22 18:26 38.94816 -77.44840 300 ft 0 kts
2026-04-22 19:03 38.94813 -77.44840 323 ft 3 kts
2026-04-22 19:04 38.94787 -77.44845 298 ft 4 kts 11°
2026-04-22 19:04 38.94761 -77.44851 301 ft 4 kts 355°
2026-04-22 19:04 38.94742 -77.44844 304 ft 4 kts 324°
2026-04-22 19:04 38.94728 -77.44826 304 ft 4 kts 278°
2026-04-22 19:05 38.94728 -77.44794 302 ft 3 kts 269°
2026-04-22 19:05 38.94728 -77.44784 301 ft 0 kts 271°
2026-04-22 19:08 38.94728 -77.44795 300 ft 4 kts 271°
2026-04-22 19:08 38.94729 -77.44862 300 ft 11 kts 271°
2026-04-22 19:08 38.94730 -77.44989 300 ft 17 kts 270°
2026-04-22 19:09 38.94732 -77.45134 300 ft 16 kts 272°
2026-04-22 19:09 38.94733 -77.45266 300 ft 14 kts 270°
2026-04-22 19:09 38.94732 -77.45383 300 ft 12 kts 270°
2026-04-22 19:09 38.94733 -77.45487 300 ft 11 kts 271°
2026-04-22 19:10 38.94728 -77.45574 300 ft 7 kts 247°
2026-04-22 19:10 38.94694 -77.45603 304 ft 7 kts 189°
2026-04-22 19:10 38.94628 -77.45607 302 ft 13 kts 182°
2026-04-22 19:10 38.94515 -77.45610 302 ft 19 kts 181°
2026-04-22 19:11 38.94364 -77.45613 302 ft 24 kts 181°
2026-04-22 19:11 38.94202 -77.45617 302 ft 22 kts 180°
2026-04-22 19:11 38.94055 -77.45617 302 ft 20 kts 180°
2026-04-22 19:11 38.93923 -77.45619 302 ft 18 kts 181°
2026-04-22 19:12 38.93802 -77.45621 302 ft 17 kts 181°
2026-04-22 19:12 38.93698 -77.45598 304 ft 13 kts 145°
2026-04-22 19:12 38.93637 -77.45517 304 ft 12 kts 136°
2026-04-22 19:12 38.93577 -77.45504 302 ft 8 kts 202°
2026-04-22 19:13 38.93513 -77.45535 302 ft 14 kts 201°
2026-04-22 19:13 38.93406 -77.45588 302 ft 6 kts 208°
2026-04-22 19:13 38.93395 -77.45606 303 ft 4 kts 233°
2026-04-22 19:13 38.93385 -77.45666 303 ft 8 kts 282°
2026-04-22 19:14 38.93425 -77.45802 303 ft 48 kts 290°
2026-04-22 19:14 38.93672 -77.46687 311 ft 159 kts 289°
2026-04-22 19:14 38.94149 -77.48238 769 ft 205 kts 288°
2026-04-22 19:14 38.94702 -77.50016 1730 ft 216 kts 292°
2026-04-22 19:15 38.95198 -77.51107 2565 ft 215 kts 306°
2026-04-22 19:15 38.96961 -77.52351 4224 ft 228 kts 352°
2026-04-22 19:15 38.98506 -77.51886 5451 ft 236 kts 27°
2026-04-22 19:15 38.99879 -77.50589 6206 ft 259 kts 34°
2026-04-22 19:16 39.01319 -77.49085 6727 ft 273 kts 38°
2026-04-22 19:16 39.02457 -77.47558 9013 ft 204 kts 42°
2026-04-22 19:16 39.03356 -77.46272 10819 ft 199 kts 40°
2026-04-22 19:16 39.04440 -77.44799 10968 ft 251 kts 39°
2026-04-22 19:17 39.05761 -77.43117 11382 ft 277 kts 39°
2026-04-22 19:17 39.07105 -77.41440 12795 ft 260 kts 38°
2026-04-22 19:17 39.08410 -77.39813 13735 ft 274 kts 37°
2026-04-22 19:17 39.09874 -77.38021 13991 ft 307 kts 38°
2026-04-22 19:18 39.11510 -77.36028 14247 ft 340 kts 38°
2026-04-22 19:18 39.13250 -77.33766 14506 ft 370 kts 45°
2026-04-22 19:18 39.14715 -77.30900 14759 ft 394 kts 62°
2026-04-22 19:18 39.15397 -77.27433 14992 ft 407 kts 84°
2026-04-22 19:19 39.15213 -77.23761 15247 ft 413 kts 98°
2026-04-22 19:19 39.14583 -77.20141 15495 ft 417 kts 105°
2026-04-22 19:19 39.13427 -77.16713 15737 ft 419 kts 121°
2026-04-22 19:19 39.11717 -77.13666 16007 ft 422 kts 130°
2026-04-22 19:20 39.09801 -77.10817 16234 ft 423 kts 133°
2026-04-22 19:20 39.07821 -77.08003 16490 ft 424 kts 133°
2026-04-22 19:20 39.05845 -77.05174 16753 ft 426 kts 132°
2026-04-22 19:20 39.03907 -77.02339 17126 ft 427 kts 131°
2026-04-22 19:21 39.01963 -76.99441 17644 ft 430 kts 131°
2026-04-22 19:21 39.00013 -76.96498 18182 ft 434 kts 130°
2026-04-22 19:21 38.98056 -76.93526 18666 ft 437 kts 130°
2026-04-22 19:21 38.96001 -76.90625 19135 ft 440 kts 138°
2026-04-22 19:22 38.93552 -76.88294 19607 ft 439 kts 154°
2026-04-22 19:22 38.90736 -76.86827 20099 ft 438 kts 166°
2026-04-22 19:22 38.87785 -76.85843 20604 ft 439 kts 171°
2026-04-22 19:22 38.84794 -76.85022 21107 ft 442 kts 172°
2026-04-22 19:23 38.81768 -76.84204 21629 ft 445 kts 172°
2026-04-22 19:23 38.78727 -76.83339 22139 ft 449 kts 171°
2026-04-22 19:23 38.75675 -76.82422 22672 ft 452 kts 170°
2026-04-22 19:23 38.72608 -76.81465 23213 ft 456 kts 170°
2026-04-22 19:24 38.69509 -76.80478 23742 ft 462 kts 169°
2026-04-22 19:24 38.66358 -76.79466 24209 ft 471 kts 169°
2026-04-22 19:24 38.63147 -76.78432 24681 ft 480 kts 169°
2026-04-22 19:24 38.59892 -76.77383 25162 ft 484 kts 169°
2026-04-22 19:25 38.56619 -76.76328 25642 ft 488 kts 169°
2026-04-22 19:25 38.53311 -76.75264 26142 ft 491 kts 169°
2026-04-22 19:25 38.49986 -76.74198 26644 ft 495 kts 169°
2026-04-22 19:25 38.46629 -76.73123 27159 ft 499 kts 169°
2026-04-22 19:26 38.43250 -76.72049 27677 ft 502 kts 170°
2026-04-22 19:26 38.39865 -76.71173 28195 ft 504 kts 174°
2026-04-22 19:26 38.36385 -76.70503 28740 ft 506 kts 176°
2026-04-22 19:26 38.32873 -76.69945 29294 ft 511 kts 177°
2026-04-22 19:27 38.29332 -76.69419 29857 ft 514 kts 177°
2026-04-22 19:27 38.25766 -76.68888 30381 ft 516 kts 177°
2026-04-22 19:27 38.22200 -76.68341 30847 ft 517 kts 176°
2026-04-22 19:27 38.18630 -76.67777 31355 ft 518 kts 176°
2026-04-22 19:28 38.15042 -76.67200 31856 ft 518 kts 176°
2026-04-22 19:28 38.11471 -76.66634 32375 ft 517 kts 177°
2026-04-22 19:28 38.07895 -76.66213 32885 ft 515 kts 179°
2026-04-22 19:28 38.04314 -76.65922 33421 ft 514 kts 180°
2026-04-22 19:29 38.00739 -76.65695 33969 ft 513 kts 181°
2026-04-22 19:29 37.97185 -76.65488 34458 ft 512 kts 181°
2026-04-22 19:29 37.93632 -76.65278 34934 ft 510 kts 180°
2026-04-22 19:29 37.90090 -76.65057 35417 ft 508 kts 180°
2026-04-22 19:30 37.87756 -76.64907 35723 ft 507 kts 180°
2026-04-22 19:30 37.83035 -76.64595 36222 ft 507 kts 180°
2026-04-22 19:30 37.79515 -76.64359 36604 ft 506 kts 180°
2026-04-22 19:30 37.76045 -76.64124 36958 ft 506 kts 180°
2026-04-22 19:31 37.72502 -76.63886 37060 ft 508 kts 180°
2026-04-22 19:31 37.65525 -76.63414 37080 ft 499 kts 180°
2026-04-22 19:32 37.58603 -76.63182 37080 ft 495 kts 188°
2026-04-22 19:32 37.51914 -76.65036 37084 ft 494 kts 202°
2026-04-22 19:33 37.45410 -76.67876 37078 ft 494 kts 203°
2026-04-22 19:33 37.38878 -76.70626 37079 ft 495 kts 201°
2026-04-22 19:34 37.32302 -76.73216 37062 ft 495 kts 201°
2026-04-22 19:34 37.25719 -76.75751 37061 ft 495 kts 201°
2026-04-22 19:35 37.19127 -76.78285 37061 ft 495 kts 201°
2026-04-22 19:35 37.13657 -76.80390 37064 ft 495 kts 201°
2026-04-22 19:36 37.05957 -76.83351 37074 ft 495 kts 201°
2026-04-22 19:36 36.99419 -76.85861 37071 ft 494 kts 201°
2026-04-22 19:37 36.92844 -76.88380 37069 ft 494 kts 201°
2026-04-22 19:37 36.86273 -76.90892 37068 ft 494 kts 201°
2026-04-22 19:38 36.79695 -76.93403 37084 ft 494 kts 201°
2026-04-22 19:38 36.73115 -76.95900 37082 ft 494 kts 201°
2026-04-22 19:39 36.66539 -76.98392 37077 ft 494 kts 201°
2026-04-22 19:39 36.59963 -77.00886 37081 ft 494 kts 201°
2026-04-22 19:40 36.53391 -77.03377 37073 ft 493 kts 201°
2026-04-22 19:40 36.46861 -77.05847 37081 ft 493 kts 201°
2026-04-22 19:41 36.40294 -77.08327 37079 ft 492 kts 200°
2026-04-22 19:41 36.33740 -77.10797 37080 ft 492 kts 200°
2026-04-22 19:42 36.27186 -77.13263 37078 ft 491 kts 200°
2026-04-22 19:42 36.20682 -77.15706 37084 ft 491 kts 200°
2026-04-22 19:43 36.10875 -77.19382 37088 ft 491 kts 200°
2026-04-22 19:43 36.04336 -77.21827 37104 ft 491 kts 200°
2026-04-22 19:44 35.97792 -77.24269 37106 ft 490 kts 200°
2026-04-22 19:44 35.92382 -77.26493 37101 ft 486 kts 207°
2026-04-22 19:45 35.86719 -77.30756 37093 ft 477 kts 223°
2026-04-22 19:45 35.81685 -77.36063 37112 ft 476 kts 225°
2026-04-22 19:46 35.76577 -77.41356 37109 ft 477 kts 223°
2026-04-22 19:46 35.71410 -77.46435 37105 ft 478 kts 222°
2026-04-22 19:47 35.66173 -77.51481 37100 ft 478 kts 222°
2026-04-22 19:47 35.60931 -77.56518 37106 ft 478 kts 222°
2026-04-22 19:48 35.55687 -77.61556 37110 ft 478 kts 222°
2026-04-22 19:48 35.50434 -77.66585 37125 ft 478 kts 221°
2026-04-22 19:49 35.45186 -77.71607 37126 ft 478 kts 221°
2026-04-22 19:49 35.39964 -77.76602 37141 ft 478 kts 221°
2026-04-22 19:50 35.34713 -77.81619 37143 ft 479 kts 221°
2026-04-22 19:50 35.29459 -77.86630 37145 ft 479 kts 221°
2026-04-22 19:51 35.24197 -77.91639 37143 ft 479 kts 221°
2026-04-22 19:51 35.18949 -77.96627 37143 ft 479 kts 221°
2026-04-22 19:52 35.13685 -78.01621 37145 ft 479 kts 221°
2026-04-22 19:52 35.08422 -78.06606 37148 ft 478 kts 221°
2026-04-22 19:53 35.03198 -78.11546 37148 ft 478 kts 221°
2026-04-22 19:53 34.97936 -78.16513 37143 ft 478 kts 221°
2026-04-22 19:54 34.92675 -78.21472 37144 ft 478 kts 221°
2026-04-22 19:54 34.87408 -78.26413 37146 ft 477 kts 221°
2026-04-22 19:55 34.82145 -78.31333 37146 ft 477 kts 221°
2026-04-22 19:55 34.76890 -78.36252 37146 ft 476 kts 221°
2026-04-22 19:56 34.71636 -78.41170 37155 ft 476 kts 221°
2026-04-22 19:56 34.66390 -78.46074 37161 ft 475 kts 221°
2026-04-22 19:57 34.61155 -78.50960 37162 ft 475 kts 221°
2026-04-22 19:57 34.55942 -78.55816 37164 ft 475 kts 221°
2026-04-22 19:58 34.50702 -78.60690 37161 ft 474 kts 221°
2026-04-22 19:58 34.45408 -78.65487 37163 ft 475 kts 219°
2026-04-22 20:00 34.26378 -78.81415 37172 ft 474 kts 218°
2026-04-22 20:01 34.20952 -78.85954 37174 ft 474 kts 218°
2026-04-22 20:01 34.15523 -78.90487 37174 ft 473 kts 218°
2026-04-22 20:02 34.10148 -78.94970 37181 ft 473 kts 218°
2026-04-22 20:02 34.04734 -78.99485 37183 ft 472 kts 218°
2026-04-22 20:03 33.99326 -79.03990 37184 ft 472 kts 218°
2026-04-22 20:03 33.93922 -79.08483 37182 ft 471 kts 218°
2026-04-22 20:04 33.88528 -79.12961 37183 ft 471 kts 218°
2026-04-22 20:04 33.83133 -79.17433 37181 ft 470 kts 218°
2026-04-22 20:05 33.77733 -79.21901 37182 ft 470 kts 218°
2026-04-22 20:05 33.72349 -79.26350 37186 ft 469 kts 218°
2026-04-22 20:06 33.66968 -79.30790 37187 ft 468 kts 218°
2026-04-22 20:06 33.61714 -79.35385 37190 ft 466 kts 222°
2026-04-22 20:07 33.56737 -79.40341 37208 ft 465 kts 224°
2026-04-22 20:07 33.51834 -79.45326 37205 ft 465 kts 224°
2026-04-22 20:08 33.46890 -79.50308 37202 ft 465 kts 223°
2026-04-22 20:08 33.41929 -79.55273 37201 ft 464 kts 223°
2026-04-22 20:09 33.36976 -79.60214 37197 ft 463 kts 223°
2026-04-22 20:09 33.32023 -79.65149 37203 ft 463 kts 223°
2026-04-22 20:10 33.27082 -79.70066 37201 ft 462 kts 223°
2026-04-22 20:10 33.22136 -79.74980 37194 ft 462 kts 223°
2026-04-22 20:11 33.17200 -79.79876 37191 ft 461 kts 223°
2026-04-22 20:11 33.12299 -79.84731 37193 ft 461 kts 223°
2026-04-22 20:12 33.07360 -79.89617 37193 ft 461 kts 223°
2026-04-22 20:12 33.03225 -79.93700 37205 ft 460 kts 223°
2026-04-22 20:13 32.97480 -79.99351 37200 ft 460 kts 223°
2026-04-22 20:13 32.92540 -80.04192 37203 ft 460 kts 223°
2026-04-22 20:14 32.87605 -80.09036 37199 ft 460 kts 223°
2026-04-22 20:14 32.82674 -80.13875 37201 ft 459 kts 223°
2026-04-22 20:15 32.77745 -80.18707 37204 ft 459 kts 223°
2026-04-22 20:15 32.72817 -80.23531 37222 ft 459 kts 223°
2026-04-22 20:16 32.67885 -80.28351 37227 ft 459 kts 223°
2026-04-22 20:16 32.62957 -80.33160 37223 ft 458 kts 223°
2026-04-22 20:17 32.57777 -80.37524 37229 ft 462 kts 215°
2026-04-22 20:17 32.52174 -80.41314 37233 ft 463 kts 213°
2026-04-22 20:18 32.46543 -80.45030 37240 ft 463 kts 213°
2026-04-22 20:18 32.40931 -80.48796 37243 ft 463 kts 213°
2026-04-22 20:19 32.35340 -80.52577 37237 ft 462 kts 213°
2026-04-22 20:19 32.29763 -80.56351 37239 ft 462 kts 213°
2026-04-22 20:20 32.24253 -80.60073 37233 ft 461 kts 213°
2026-04-22 20:20 32.18677 -80.63832 37235 ft 461 kts 213°
2026-04-22 20:21 32.13138 -80.67560 37242 ft 461 kts 213°
2026-04-22 20:21 32.07576 -80.71299 37236 ft 460 kts 213°
2026-04-22 20:22 32.02014 -80.75033 37230 ft 459 kts 213°
2026-04-22 20:22 31.96459 -80.78756 37226 ft 459 kts 213°
2026-04-22 20:23 31.90911 -80.82470 37212 ft 458 kts 214°
2026-04-22 20:23 31.85367 -80.86166 37211 ft 458 kts 213°
2026-04-22 20:24 31.79824 -80.89852 37214 ft 457 kts 214°
2026-04-22 20:24 31.74296 -80.93532 37219 ft 456 kts 214°
2026-04-22 20:25 31.68773 -80.97208 37226 ft 456 kts 214°
2026-04-22 20:25 31.63257 -81.00875 37223 ft 455 kts 214°
2026-04-22 20:26 31.57731 -81.04499 37225 ft 456 kts 213°
2026-04-22 20:26 31.52115 -81.07973 37226 ft 456 kts 212°
2026-04-22 20:27 31.46528 -81.11376 37230 ft 455 kts 212°
2026-04-22 20:27 31.40915 -81.14801 37236 ft 454 kts 212°
2026-04-22 20:28 31.35303 -81.18198 37227 ft 454 kts 212°
2026-04-22 20:28 31.29685 -81.21551 37229 ft 453 kts 212°
2026-04-22 20:29 31.24054 -81.24905 36648 ft 453 kts 212°
2026-04-22 20:29 31.21241 -81.26558 36131 ft 454 kts 210°
2026-04-22 20:29 31.19317 -81.27516 35800 ft 458 kts 205°
2026-04-22 20:29 31.15123 -81.28655 35150 ft 469 kts 191°
2026-04-22 20:30 31.12965 -81.28801 34838 ft 473 kts 186°
2026-04-22 20:30 31.09641 -81.28731 34368 ft 477 kts 183°
2026-04-22 20:30 31.06321 -81.28544 33854 ft 478 kts 183°
2026-04-22 20:30 31.01926 -81.28328 33154 ft 478 kts 184°
2026-04-22 20:31 30.99665 -81.28256 32804 ft 479 kts 184°
2026-04-22 20:31 30.96332 -81.28191 32283 ft 480 kts 185°
2026-04-22 20:31 30.92989 -81.28162 31800 ft 481 kts 185°
2026-04-22 20:31 30.89634 -81.28150 31389 ft 482 kts 185°
2026-04-22 20:32 30.86276 -81.28146 31031 ft 484 kts 185°
2026-04-22 20:32 30.83290 -81.28143 30714 ft 484 kts 185°
2026-04-22 20:32 30.79927 -81.28138 30383 ft 483 kts 185°
2026-04-22 20:32 30.76566 -81.28131 30268 ft 482 kts 185°
2026-04-22 20:33 30.73208 -81.28122 30243 ft 481 kts 185°
2026-04-22 20:33 30.66505 -81.28104 30239 ft 481 kts 185°
2026-04-22 20:34 30.59800 -81.28053 30237 ft 482 kts 184°
2026-04-22 20:34 30.56442 -81.27891 30025 ft 485 kts 182°
2026-04-22 20:34 30.53093 -81.27654 29473 ft 481 kts 181°
2026-04-22 20:34 30.49766 -81.27383 28930 ft 478 kts 181°
2026-04-22 20:35 30.46458 -81.27107 28398 ft 474 kts 181°
2026-04-22 20:35 30.43227 -81.26843 27878 ft 470 kts 181°
2026-04-22 20:35 30.39936 -81.26582 27360 ft 466 kts 181°
2026-04-22 20:35 30.36758 -81.26337 26857 ft 462 kts 181°
2026-04-22 20:36 30.33519 -81.26091 26357 ft 458 kts 181°
2026-04-22 20:36 30.30351 -81.25852 25873 ft 455 kts 181°
2026-04-22 20:36 30.27240 -81.25619 25404 ft 452 kts 181°
2026-04-22 20:36 30.24108 -81.25384 24932 ft 449 kts 180°
2026-04-22 20:37 30.20991 -81.25150 24462 ft 446 kts 180°
2026-04-22 20:37 30.17897 -81.24918 24027 ft 444 kts 180°
2026-04-22 20:37 30.14826 -81.24688 23517 ft 441 kts 180°
2026-04-22 20:37 30.11773 -81.24458 22987 ft 439 kts 180°
2026-04-22 20:38 30.08736 -81.24230 22465 ft 436 kts 180°
2026-04-22 20:38 30.05718 -81.24003 21949 ft 433 kts 180°
2026-04-22 20:38 30.02725 -81.23778 21444 ft 430 kts 180°
2026-04-22 20:38 29.99742 -81.23555 20948 ft 427 kts 180°
2026-04-22 20:39 29.96778 -81.23332 20507 ft 424 kts 180°
2026-04-22 20:39 29.93830 -81.23112 20149 ft 423 kts 180°
2026-04-22 20:39 29.90906 -81.22893 19792 ft 421 kts 180°
2026-04-22 20:39 29.87993 -81.22675 19444 ft 419 kts 180°
2026-04-22 20:40 29.85095 -81.22459 19298 ft 417 kts 180°
2026-04-22 20:40 29.82202 -81.22243 19264 ft 416 kts 180°
2026-04-22 20:40 29.79311 -81.22028 19259 ft 416 kts 180°
2026-04-22 20:40 29.76466 -81.21817 19256 ft 416 kts 180°
2026-04-22 20:41 29.73529 -81.21599 19039 ft 417 kts 180°
2026-04-22 20:41 29.70683 -81.21381 18583 ft 414 kts 180°
2026-04-22 20:41 29.67816 -81.21145 18058 ft 411 kts 180°
2026-04-22 20:41 29.64984 -81.20903 17543 ft 407 kts 179°
2026-04-22 20:42 29.62166 -81.20660 17020 ft 402 kts 179°
2026-04-22 20:42 29.59413 -81.20422 16507 ft 399 kts 179°
2026-04-22 20:42 29.56659 -81.20185 16022 ft 395 kts 178°
2026-04-22 20:42 29.53943 -81.19951 15524 ft 385 kts 178°
2026-04-22 20:43 29.51321 -81.19724 15038 ft 372 kts 178°
2026-04-22 20:43 29.48777 -81.19505 14566 ft 361 kts 178°
2026-04-22 20:43 29.46314 -81.19293 14170 ft 348 kts 178°
2026-04-22 20:43 29.43945 -81.19090 13780 ft 336 kts 177°
2026-04-22 20:44 29.41657 -81.18895 13389 ft 326 kts 177°
2026-04-22 20:44 29.39411 -81.18705 13064 ft 320 kts 177°
2026-04-22 20:44 29.37189 -81.18516 12988 ft 320 kts 177°
2026-04-22 20:44 29.34973 -81.18328 12979 ft 319 kts 177°
2026-04-22 20:45 29.32746 -81.18139 12603 ft 316 kts 177°
2026-04-22 20:45 29.30576 -81.17954 12226 ft 309 kts 177°
2026-04-22 20:45 29.28464 -81.17769 12015 ft 296 kts 176°
2026-04-22 20:45 29.26461 -81.17593 11986 ft 291 kts 176°
2026-04-22 20:46 29.22441 -81.17238 11974 ft 288 kts 176°
2026-04-22 20:46 29.20442 -81.17061 11977 ft 288 kts 176°
2026-04-22 20:46 29.18458 -81.16704 11977 ft 289 kts 166°
2026-04-22 20:47 29.16540 -81.16003 11976 ft 290 kts 162°
2026-04-22 20:47 29.14643 -81.15204 11980 ft 290 kts 161°
2026-04-22 20:47 29.12752 -81.14384 11986 ft 291 kts 161°
2026-04-22 20:47 29.10860 -81.13563 11979 ft 291 kts 161°
2026-04-22 20:48 29.08970 -81.12744 11971 ft 290 kts 161°
2026-04-22 20:48 29.07086 -81.11930 11982 ft 290 kts 161°
2026-04-22 20:48 29.05187 -81.11131 11933 ft 291 kts 163°
2026-04-22 20:48 29.03244 -81.10528 11504 ft 285 kts 168°
2026-04-22 20:49 29.01301 -81.10049 11069 ft 285 kts 169°
2026-04-22 20:49 28.99385 -81.09605 10631 ft 284 kts 169°
2026-04-22 20:49 28.97455 -81.09162 10151 ft 281 kts 169°
2026-04-22 20:49 28.95570 -81.08727 9644 ft 264 kts 168°
2026-04-22 20:50 28.93872 -81.08334 9116 ft 239 kts 168°
2026-04-22 20:50 28.92276 -81.07965 8597 ft 232 kts 168°
2026-04-22 20:50 28.90702 -81.07599 8100 ft 230 kts 168°
2026-04-22 20:50 28.89143 -81.07357 7593 ft 220 kts 179°
2026-04-22 20:51 28.87749 -81.07781 7073 ft 202 kts 206°
2026-04-22 20:51 28.86553 -81.08603 6591 ft 199 kts 211°
2026-04-22 20:51 28.85401 -81.09460 6080 ft 197 kts 212°
2026-04-22 20:51 28.84262 -81.10324 5614 ft 196 kts 212°
2026-04-22 20:52 28.83133 -81.11193 5114 ft 196 kts 212°
2026-04-22 20:52 28.82011 -81.12064 4606 ft 195 kts 212°
2026-04-22 20:52 28.80895 -81.12939 4148 ft 194 kts 211°
2026-04-22 20:52 28.79840 -81.13769 3804 ft 195 kts 211°
2026-04-22 20:53 28.78726 -81.14650 3436 ft 194 kts 211°
2026-04-22 20:53 28.77737 -81.15708 3051 ft 198 kts 233°
2026-04-22 20:53 28.77255 -81.17170 2676 ft 200 kts 255°
2026-04-22 20:53 28.77028 -81.18736 2765 ft 201 kts 260°
2026-04-22 20:54 28.76845 -81.20333 2969 ft 203 kts 261°
2026-04-22 20:54 28.76668 -81.21928 2955 ft 204 kts 261°
2026-04-22 20:54 28.76494 -81.23532 2952 ft 204 kts 261°
2026-04-22 20:54 28.76321 -81.25135 2942 ft 204 kts 261°
2026-04-22 20:55 28.76150 -81.26739 2974 ft 203 kts 262°
2026-04-22 20:55 28.75982 -81.28340 2954 ft 204 kts 262°
2026-04-22 20:55 28.75813 -81.29940 2956 ft 203 kts 261°
2026-04-22 20:55 28.75439 -81.31474 2947 ft 199 kts 237°
2026-04-22 20:56 28.74462 -81.32486 2835 ft 190 kts 197°
2026-04-22 20:56 28.73195 -81.32731 2481 ft 182 kts 179°
2026-04-22 20:56 28.71921 -81.32782 2375 ft 185 kts 177°
2026-04-22 20:56 28.70635 -81.32811 2139 ft 182 kts 177°
2026-04-22 20:57 28.69422 -81.32830 1960 ft 171 kts 176°
2026-04-22 20:57 28.68244 -81.32841 1969 ft 167 kts 176°
2026-04-22 20:57 28.67099 -81.32846 1952 ft 162 kts 176°
2026-04-22 20:57 28.65972 -81.32847 1952 ft 162 kts 175°
2026-04-22 20:58 28.64845 -81.32844 1970 ft 162 kts 175°
2026-04-22 20:58 28.63710 -81.32841 1961 ft 163 kts 174°
2026-04-22 20:58 28.62578 -81.32835 1962 ft 163 kts 175°
2026-04-22 20:58 28.61450 -81.32829 1846 ft 159 kts 174°
2026-04-22 20:59 28.60364 -81.32823 1663 ft 155 kts 174°
2026-04-22 20:59 28.59288 -81.32814 1584 ft 154 kts 175°
2026-04-22 20:59 28.58227 -81.32806 1536 ft 155 kts 174°
2026-04-22 20:59 28.57145 -81.32795 1387 ft 155 kts 174°
2026-04-22 21:00 28.56071 -81.32785 1217 ft 153 kts 174°
2026-04-22 21:00 28.55012 -81.32776 947 ft 152 kts 174°
2026-04-22 21:00 28.53957 -81.32773 795 ft 151 kts 174°
2026-04-22 21:00 28.52891 -81.32800 643 ft 154 kts 175°
2026-04-22 21:01 28.51851 -81.32819 481 ft 148 kts 176°
2026-04-22 21:01 28.50825 -81.32840 393 ft 152 kts 174°
2026-04-22 21:01 28.49729 -81.32825 478 ft 154 kts 174°
2026-04-22 21:01 28.48680 -81.32805 366 ft 149 kts 172°
2026-04-22 21:02 28.47629 -81.32751 363 ft 152 kts 173°
2026-04-22 21:02 28.46579 -81.32736 315 ft 149 kts 175°
2026-04-22 21:02 28.45569 -81.32737 214 ft 138 kts 173°
2026-04-22 21:02 28.44653 -81.32705 147 ft 124 kts 173°
2026-04-22 21:03 28.43880 -81.32674 111 ft 90 kts 179°
2026-04-22 21:03 28.43375 -81.32665 115 ft 56 kts 180°
2026-04-22 21:03 28.43121 -81.32628 112 ft 24 kts 151°
2026-04-22 21:03 28.43062 -81.32523 110 ft 11 kts 99°
2026-04-22 21:04 28.43054 -81.32446 112 ft 7 kts 90°
2026-04-22 21:04 28.43056 -81.32397 113 ft 7 kts 86°
2026-04-22 21:04 28.43059 -81.32319 111 ft 14 kts 88°
2026-04-22 21:04 28.43058 -81.32176 108 ft 22 kts 89°
2026-04-22 21:05 28.43061 -81.32027 109 ft 19 kts 91°
2026-04-22 21:05 28.43022 -81.31877 109 ft 21 kts 116°
2026-04-22 21:05 28.42931 -81.31740 109 ft 20 kts 140°
2026-04-22 21:05 28.42786 -81.31673 107 ft 23 kts 166°
2026-04-22 21:06 28.42688 -81.31637 109 ft 11 kts 147°
2026-04-22 21:06 28.42657 -81.31590 108 ft 7 kts 124°
2026-04-22 21:06 28.42641 -81.31569 109 ft 0 kts 131°
2026-04-22 21:06 28.42640 -81.31567 109 ft 0 kts 131°